Regional Weather Roundup
Issued by NWS

Home | Current Version | Previous Version | Graphics & Text | Print | Product List | Glossary On
Versions: 1 2 3 4 5 6 7 8 9 10 11 12 13 14 15 16 17 18 19 20 21 22 23 24 25 26 27 28 29 30 31 32 33 34 35 36 37 38 39 40 41 42 43 44 45 46 47 48 49 50
000
ASUS43 KIND 220100
RWRIN

WEATHER ROUNDUP FOR INDIANA
NATIONAL WEATHER SERVICE INDIANAPOLIS IN
900 PM EDT THU SEP 21 2017

NOTE: "FAIR" INDICATES FEW OR NO CLOUDS BELOW 12,000 FEET WITH NO
SIGNIFICANT WEATHER AND/OR OBSTRUCTIONS TO VISIBILITY.

* - STATION DOES NOT REPORT WEATHER SUCH AS PRECIPITATION OR FOG.

+ - STATION NOT QUALITY CONTROLLED BY THE NATIONAL WEATHER SERVICE.
    USE DATA WITH CAUTION...ESPECIALLY DEWPOINT AND RELATIVE
    HUMIDITY OBSERVATIONS.

INZ001>003-010>013-019-020-220200-
NORTHWEST INDIANA

CITY           SKY/WX    TMP DP  RH WIND       PRES   REMARKS
GARY /AIRPORT/ PTCLDY    75  72  88 CALM      30.01R
MICHIGAN CITY+ CLEAR     77  77 100 CALM      30.03R

$$

LMZ046-743>745-220200-
SOUTHERN LAKE MICHIGAN

STATION/POSITION TIME  TEMP    WIND        PRES    WAVE
                       AIR SEA DIR/SP/G            HT
                 (UTC) (F)     (DEG/KT/KT) (MB)    (FT)
BURNS HARBOR     0040   84     190/  5/  7 1016.6R
MICHIGAN CITY    0030   81     110/  5/  5   N/A
5NW MICH CITY    0050   73 71   90/  6/  6   N/A     0

$$

INZ004-005-014>016-021>024-220200-
NORTH CENTRAL INDIANA

CITY           SKY/WX    TMP DP  RH WIND       PRES   REMARKS
ELKHART        CLEAR     81  72  74 CALM      30.05R
GOSHEN         CLEAR     78  70  76 CALM      30.05R
SOUTH BEND     CLEAR     81  71  71 SE6       30.04S
WARSAW +       CLEAR     73  72  94 CALM      30.06R

$$

INZ006>009-017-018-025>027-220200-
NORTHEAST INDIANA

CITY           SKY/WX    TMP DP  RH WIND       PRES   REMARKS
AUBURN +       CLEAR     75  70  83 CALM      30.06S
FORT WAYNE     PTCLDY    76  69  79 CALM      30.06R
KENDALLVILLE + CLEAR     76  72  88 CALM      30.07S

$$

INZ028-029-035-036-043>045-051>053-220200-
WEST CENTRAL INDIANA

CITY           SKY/WX    TMP DP  RH WIND       PRES   REMARKS
GREENCASTLE +  CLEAR     75  66  73 CALM      30.05R
LAFAYETTE      CLEAR     75  71  87 CALM      30.02R
TERRE HAUTE    CLEAR     77  68  73 CALM      30.02R

$$

INZ030>032-037>040-046>048-054>057-064-065-220200-
CENTRAL INDIANA

CITY           SKY/WX    TMP DP  RH WIND       PRES   REMARKS
COLUMBUS       CLEAR     77  66  69 CALM      30.04R
GREENWOOD *+   CLEAR     80  76  86 CALM      30.05R
INDIANAPOLIS   PTCLDY    83  66  56 SW5       30.04R
-EAGLE CREEK   CLEAR     79  71  76 NW3       30.03R
KOKOMO +       CLEAR     76  71  85 CALM      30.06R
MT COMFORT *+  CLEAR     75  68  78 CALM      30.06R
SHELBYVILLE    CLEAR     76  68  76 SE3       30.04R

$$

INZ033-034-041-042-049-050-058-059-220200-
EAST CENTRAL INDIANA

CITY           SKY/WX    TMP DP  RH WIND       PRES   REMARKS
MUNCIE         CLEAR     75  71  87 CALM      30.06R
RICHMOND +     PTCLDY    72  68  88 CALM      30.08S

$$

INZ060-061-067>069-081>083-085>088-220200-
SOUTHWEST INDIANA

CITY           SKY/WX    TMP DP  RH WIND       PRES   REMARKS
EVANSVILLE     CLEAR     79  71  76 NE3       30.02R
HUNTINGBURG +  CLEAR     79  72  79 SE3       30.03R

$$

INZ062-063-066-070>080-084-089>092-220200-
SOUTH CENTRAL AND SOUTHEAST INDIANA

CITY           SKY/WX    TMP DP  RH WIND       PRES   REMARKS
BLOOMINGTON    CLEAR     75  68  78 CALM      30.04R
MADISON *+     CLEAR     73  70  88 CALM      30.08R
SEYMOUR +      CLEAR     75  70  83 CALM      30.04R

$$




USA.gov is the U.S. government's official web portal to all federal, state and local government web resources and services.